User: anonymous   Login
Location: Long Island Community Building
(39.9491°N, 99.5338°W)
Time: 07:52:07
(UTC+00:00)
Language:

Cosmos 1110 Rocket - Orbit

View from above orbital plane
View from above orbital plane
View from above satellite
View from above satellite

Ground track
Ground track

The orbit data is extracted from the following two-line orbital elements,

1 11427U 79060B   20050.08711074 -.00000058  00000-0 -10483-4 0  9997
2 11427  74.0163  27.5902 0021276 291.5187  68.3698 14.37408038128283
Epoch (UTC): 19 February 2020 02:05:26
Eccentricity: 0.0021276
inclination: 74.0163°
perigee height: 752 km
apogee height: 782 km
right ascension of ascending node: 27.5902°
argument of perigee: 291.5187°
revolutions per day: 14.37408038
mean anomaly at epoch: 68.3698°
orbit number at epoch: 12828

The dashed part of the orbit path shows where the satellite is in the earth's shadow,  

DLR